| time (UTC) | temp C | wind direction | speed KPH | gust KPH | rain 1hr cm | rain 24hr cm | rain mn cm | humidity % | barometer mb |
| 20260901131805 | 30 | 152 | 1.6 | 8.0 | 0.00 | 0.00 | 0.00 | 64 | 1014.9 |
| 20260901131305 | 30 | 145 | 0.0 | 4.8 | 0.00 | 0.00 | 0.00 | 67 | 1014.9 |
| 20260901130805 | 29 | 142 | 1.6 | 8.0 | 0.00 | 0.00 | 0.00 | 65 | 1014.9 |
| 20260901130304 | 29 | 136 | 0.0 | 4.8 | 0.00 | 0.00 | 0.00 | 67 | 1014.8 |
| 20260901125308 | 29 | 136 | 1.6 | 4.8 | 0.00 | 0.00 | 0.00 | 68 | 1014.3 |
| 20260901124804 | 30 | 115 | 0.0 | 4.8 | 0.00 | 0.00 | 0.00 | 65 | 1014.3 |
| 20260901124304 | 29 | 78 | 0.0 | 4.8 | 0.00 | 0.00 | 0.00 | 67 | 1014.4 |
| 20260901123805 | 29 | 138 | 0.0 | 3.2 | 0.00 | 0.00 | 0.00 | 66 | 1014.4 |
| 20260901123305 | 29 | 138 | 1.6 | 4.8 | 0.00 | 0.00 | 0.00 | 67 | 1014.5 |
| 20260901122805 | 30 | 135 | 1.6 | 8.0 | 0.00 | 0.00 | 0.00 | 66 | 1014.4 |
| 20260901122306 | 30 | 147 | 1.6 | 4.8 | 0.00 | 0.00 | 0.00 | 67 | 1014.2 |
| 20260901121305 | 30 | 134 | 1.6 | 8.0 | 0.00 | 0.00 | 0.00 | 65 | 1014.5 |
| 20260901120805 | 30 | 150 | 1.6 | 8.0 | 0.00 | 0.00 | 0.00 | 64 | 1014.5 |
| 20260901120305 | 30 | 121 | 1.6 | 8.0 | 0.00 | 0.00 | 0.00 | 64 | 1014.6 |
| 20260901115805 | 30 | 145 | 1.6 | 9.7 | 0.00 | 0.00 | 0.00 | 64 | 1014.8 |
| 20260901115306 | 30 | 147 | 3.2 | 9.7 | 0.00 | 0.00 | 0.00 | 64 | 1014.9 |
| 20260901114805 | 30 | 149 | 1.6 | 8.0 | 0.00 | 0.00 | 0.00 | 64 | 1014.9 |
| 20260901114305 | 30 | 124 | 1.6 | 8.0 | 0.00 | 0.00 | 0.00 | 66 | 1014.7 |
| 20260901113805 | 30 | 129 | 3.2 | 8.0 | 0.00 | 0.00 | 0.00 | 66 | 1014.9 |
| 20260901112804 | 30 | 118 | 0.0 | 3.2 | 0.00 | 0.00 | 0.00 | 66 | 1015.2 |
| 20260901112306 | 30 | 118 | 0.0 | 4.8 | 0.00 | 0.00 | 0.00 | 66 | 1015.1 |
| 20260901111804 | 29 | 107 | 0.0 | 3.2 | 0.00 | 0.00 | 0.00 | 66 | 1015.1 |
| 20260901110804 | 30 | 144 | 1.6 | 3.2 | 0.00 | 0.00 | 0.00 | 65 | 1015.3 |
| 20260901110304 | 30 | 100 | 0.0 | 4.8 | 0.00 | 0.00 | 0.00 | 65 | 1015.4 |
| 20260901105305 | 30 | 117 | 1.6 | 8.0 | 0.00 | 0.00 | 0.00 | 63 | 1015.1 |
| 20260901104804 | 31 | 113 | 1.6 | 11.3 | 0.00 | 0.00 | 0.00 | 64 | 1014.9 |
| 20260901104305 | 30 | 143 | 1.6 | 9.7 | 0.00 | 0.00 | 0.00 | 66 | 1015.1 |
| 20260901103804 | 30 | 136 | 1.6 | 4.8 | 0.00 | 0.00 | 0.00 | 65 | 1015.0 |
| 20260901103305 | 30 | 150 | 3.2 | 14.5 | 0.00 | 0.00 | 0.00 | 65 | 1015.1 |
| 20260901102805 | 30 | 144 | 1.6 | 14.5 | 0.00 | 0.00 | 0.00 | 66 | 1015.2 |
| 20260901102306 | 30 | 139 | 4.8 | 9.7 | 0.00 | 0.00 | 0.00 | 66 | 1015.4 |
| 20260901101805 | 30 | 139 | 0.0 | 0.0 | 0.00 | 0.00 | 0.00 | 66 | 1015.4 |
| 20260901101305 | 30 | 153 | 0.0 | 8.0 | 0.00 | 0.00 | 0.00 | 67 | 1015.4 |
| 20260901100804 | 30 | 133 | 1.6 | 9.7 | 0.00 | 0.00 | 0.00 | 67 | 1015.5 |
| 20260901100305 | 30 | 127 | 3.2 | 11.3 | 0.00 | 0.00 | 0.00 | 65 | 1015.5 |
| 20260901095306 | 30 | 101 | 0.0 | 9.7 | 0.00 | 0.00 | 0.00 | 65 | 1015.4 |
| 20260901094805 | 30 | 157 | 3.2 | 11.3 | 0.00 | 0.00 | 0.00 | 67 | 1015.4 |
| 20260901093804 | 30 | 138 | 1.6 | 8.0 | 0.00 | 0.00 | 0.00 | 67 | 1015.3 |
| 20260901092805 | 30 | 135 | 4.8 | 11.3 | 0.00 | 0.00 | 0.00 | 68 | 1015.4 |
| 20260901092305 | 30 | 142 | 1.6 | 12.9 | 0.00 | 0.00 | 0.00 | 70 | 1015.3 |
| 20260901091805 | 30 | 153 | 1.6 | 8.0 | 0.00 | 0.00 | 0.00 | 70 | 1015.4 |
| 20260901090304 | 28 | 126 | 1.6 | 8.0 | 0.00 | 0.00 | 0.00 | 74 | 1015.3 |
| 20260901085805 | 28 | 140 | 3.2 | 8.0 | 0.00 | 0.00 | 0.00 | 74 | 1015.2 |
| 20260901085306 | 28 | 147 | 3.2 | 11.3 | 0.00 | 0.00 | 0.00 | 75 | 1015.3 |
| 20260901084804 | 28 | 138 | 1.6 | 8.0 | 0.00 | 0.00 | 0.00 | 77 | 1015.2 |
| 20260901084305 | 28 | 150 | 0.0 | 4.8 | 0.00 | 0.00 | 0.00 | 76 | 1015.2 |
| 20260901083305 | 28 | 133 | 1.6 | 9.7 | 0.00 | 0.00 | 0.00 | 78 | 1015.1 |
| 20260901082805 | 28 | 138 | 0.0 | 8.0 | 0.00 | 0.00 | 0.00 | 77 | 1015.0 |
| 20260901081804 | 28 | 128 | 1.6 | 8.0 | 0.00 | 0.00 | 0.00 | 77 | 1015.0 |
| 20260901081305 | 28 | 123 | 0.0 | 4.8 | 0.00 | 0.00 | 0.00 | 78 | 1015.0 |
| 20260901080805 | 28 | 114 | 1.6 | 8.0 | 0.00 | 0.00 | 0.00 | 77 | 1014.9 |
| 20260901075805 | 28 | 131 | 0.0 | 8.0 | 0.00 | 0.00 | 0.00 | 77 | 1014.6 |
| 20260901075307 | 28 | 144 | 1.6 | 8.0 | 0.00 | 0.00 | 0.00 | 77 | 1014.7 |
| 20260901074805 | 28 | 138 | 1.6 | 8.0 | 0.00 | 0.00 | 0.00 | 78 | 1014.6 |
| 20260901074305 | 28 | 122 | 0.0 | 3.2 | 0.00 | 0.00 | 0.00 | 79 | 1014.7 |
| 20260901073304 | 27 | 129 | 1.6 | 4.8 | 0.00 | 0.00 | 0.00 | 81 | 1014.8 |
| 20260901071804 | 27 | 139 | 0.0 | 3.2 | 0.00 | 0.00 | 0.00 | 84 | 1014.6 |
| 20260901071305 | 27 | 91 | 0.0 | 3.2 | 0.00 | 0.00 | 0.00 | 85 | 1014.6 |
| 20260901070805 | 26 | 82 | 0.0 | 0.0 | 0.00 | 0.00 | 0.00 | 85 | 1014.5 |
| 20260901070305 | 26 | 82 | 0.0 | 3.2 | 0.00 | 0.00 | 0.00 | 86 | 1014.3 |
| 20260901065805 | 26 | 80 | 0.0 | 0.0 | 0.00 | 0.00 | 0.00 | 86 | 1014.2 |
| 20260901065305 | 26 | 80 | 0.0 | 0.0 | 0.00 | 0.00 | 0.00 | 86 | 1014.1 |
| 20260901064804 | 26 | 80 | 0.0 | 1.6 | 0.00 | 0.00 | 0.00 | 87 | 1014.0 |
| 20260901064305 | 26 | 80 | 0.0 | 3.2 | 0.00 | 0.00 | 0.00 | 87 | 1014.1 |
| 20260901063805 | 26 | 77 | 0.0 | 3.2 | 0.00 | 0.00 | 0.00 | 87 | 1014.1 |
| 20260901063304 | 26 | 75 | 0.0 | 3.2 | 0.00 | 0.00 | 0.00 | 88 | 1014.2 |
| 20260901062805 | 26 | 66 | 0.0 | 4.8 | 0.00 | 0.00 | 0.00 | 88 | 1013.7 |
| 20260901062309 | 25 | 62 | 0.0 | 0.0 | 0.00 | 0.00 | 0.00 | 88 | 1013.7 |
| 20260901061804 | 25 | 63 | 0.0 | 0.0 | 0.00 | 0.00 | 0.00 | 88 | 1013.9 |
| 20260901061304 | 25 | 49 | 0.0 | 0.0 | 0.00 | 0.00 | 0.00 | 88 | 1014.1 |
| 20260901060804 | 25 | 49 | 0.0 | 0.0 | 0.00 | 0.00 | 0.00 | 88 | 1013.9 |
| 20260901060304 | 25 | 49 | 0.0 | 0.0 | 0.00 | 0.00 | 0.00 | 89 | 1013.9 |
| 20260901055805 | 25 | 49 | 0.0 | 0.0 | 0.00 | 0.00 | 0.00 | 89 | 1013.8 |
| 20260901055306 | 25 | 49 | 0.0 | 0.0 | 0.00 | 0.00 | 0.00 | 89 | 1013.9 |
| 20260901054804 | 25 | 49 | 0.0 | 0.0 | 0.00 | 0.00 | 0.00 | 89 | 1013.9 |
| 20260901053804 | 25 | 49 | 0.0 | 0.0 | 0.00 | 0.00 | 0.00 | 89 | 1013.8 |
| 20260901053304 | 25 | 49 | 0.0 | 0.0 | 0.00 | 0.00 | 0.00 | 89 | 1013.5 |
| 20260901052805 | 25 | 47 | 0.0 | 0.0 | 0.00 | 0.00 | 0.00 | 89 | 1013.5 |
| 20260901052307 | 25 | 47 | 0.0 | 0.0 | 0.00 | 0.00 | 0.00 | 89 | 1013.5 |
| 20260901051304 | 25 | 47 | 0.0 | 0.0 | 0.00 | 0.00 | 0.00 | 89 | 1013.6 |
| 20260901050804 | 25 | 47 | 0.0 | 0.0 | 0.00 | 0.00 | 0.00 | 89 | 1013.6 |
| 20260901050304 | 25 | 48 | 0.0 | 0.0 | 0.00 | 0.00 | 0.00 | 89 | 1013.4 |
| 20260901045804 | 25 | 46 | 0.0 | 0.0 | 0.00 | 0.00 | 0.00 | 89 | 1013.4 |
| 20260901044804 | 25 | 44 | 0.0 | 0.0 | 0.00 | 0.00 | 0.00 | 90 | 1013.2 |
| 20260901044304 | 25 | 47 | 0.0 | 1.6 | 0.00 | 0.00 | 0.00 | 90 | 1013.1 |
| 20260901043804 | 25 | 47 | 0.0 | 3.2 | 0.00 | 0.00 | 0.00 | 90 | 1013.0 |
| 20260901043304 | 25 | 37 | 0.0 | 0.0 | 0.00 | 0.00 | 0.00 | 90 | 1013.2 |
| 20260901042805 | 25 | 19 | 0.0 | 0.0 | 0.00 | 0.00 | 0.00 | 90 | 1013.2 |
| 20260901041804 | 25 | 31 | 0.0 | 0.0 | 0.00 | 0.00 | 0.00 | 90 | 1013.5 |
| 20260901041305 | 25 | 31 | 0.0 | 0.0 | 0.00 | 0.00 | 0.00 | 90 | 1013.6 |
| 20260901040804 | 25 | 31 | 0.0 | 0.0 | 0.00 | 0.00 | 0.00 | 90 | 1013.6 |
| 20260901040305 | 25 | 31 | 0.0 | 0.0 | 0.00 | 0.00 | 0.00 | 90 | 1013.7 |
| 20260901035805 | 25 | 31 | 0.0 | 0.0 | 0.00 | 0.00 | 0.00 | 90 | 1013.6 |
| 20260901035305 | 25 | 31 | 0.0 | 0.0 | 0.00 | 0.00 | 0.00 | 90 | 1013.6 |
| 20260901034804 | 25 | 31 | 0.0 | 0.0 | 0.00 | 0.00 | 0.00 | 90 | 1013.6 |
| 20260901034304 | 25 | 31 | 0.0 | 0.0 | 0.00 | 0.00 | 0.00 | 90 | 1013.6 |
| 20260901033804 | 25 | 31 | 0.0 | 0.0 | 0.00 | 0.00 | 0.00 | 90 | 1013.6 |
| 20260901032804 | 25 | 31 | 0.0 | 0.0 | 0.00 | 0.00 | 0.00 | 90 | 1013.6 |
| 20260901032306 | 25 | 31 | 0.0 | 0.0 | 0.00 | 0.00 | 0.00 | 90 | 1013.7 |
| 20260901031805 | 25 | 31 | 0.0 | 0.0 | 0.00 | 0.00 | 0.00 | 89 | 1013.8 |
| 20260901031304 | 25 | 31 | 0.0 | 0.0 | 0.00 | 0.00 | 0.00 | 89 | 1013.8 |
| 20260901030805 | 25 | 31 | 0.0 | 0.0 | 0.00 | 0.00 | 0.00 | 89 | 1013.8 |
| 20260901030304 | 25 | 31 | 0.0 | 0.0 | 0.00 | 0.00 | 0.00 | 89 | 1013.8 |
| 20260901025804 | 25 | 31 | 0.0 | 0.0 | 0.00 | 0.00 | 0.00 | 89 | 1013.7 |
| 20260901024304 | 25 | 31 | 0.0 | 0.0 | 0.00 | 0.00 | 0.00 | 89 | 1013.7 |
| 20260901023804 | 25 | 31 | 0.0 | 0.0 | 0.00 | 0.00 | 0.00 | 88 | 1013.7 |
| 20260901023304 | 25 | 31 | 0.0 | 0.0 | 0.00 | 0.00 | 0.00 | 88 | 1013.8 |
| 20260901022805 | 25 | 31 | 0.0 | 0.0 | 0.00 | 0.00 | 0.00 | 88 | 1013.9 |
| 20260901022306 | 26 | 31 | 0.0 | 0.0 | 0.00 | 0.00 | 0.00 | 88 | 1013.9 |
| 20260901021804 | 26 | 31 | 0.0 | 0.0 | 0.00 | 0.00 | 0.00 | 88 | 1014.0 |
| 20260901021304 | 26 | 31 | 0.0 | 0.0 | 0.00 | 0.00 | 0.00 | 88 | 1014.0 |
| 20260901020804 | 26 | 31 | 0.0 | 0.0 | 0.00 | 0.00 | 0.00 | 88 | 1014.0 |
| 20260901020304 | 26 | 31 | 0.0 | 0.0 | 0.00 | 0.00 | 0.00 | 88 | 1014.0 |
| 20260901015804 | 26 | 31 | 0.0 | 0.0 | 0.00 | 0.00 | 0.00 | 88 | 1014.0 |
| 20260901015305 | 26 | 31 | 0.0 | 0.0 | 0.00 | 0.00 | 0.00 | 88 | 1014.0 |
| 20260901014804 | 26 | 31 | 0.0 | 0.0 | 0.00 | 0.00 | 0.00 | 88 | 1014.1 |
| 20260901014304 | 26 | 31 | 0.0 | 0.0 | 0.00 | 0.00 | 0.00 | 88 | 1014.2 |
| 20260901013804 | 26 | 31 | 0.0 | 0.0 | 0.00 | 0.00 | 0.00 | 88 | 1014.2 |
| 20260901012306 | 26 | 31 | 0.0 | 0.0 | 0.00 | 0.00 | 0.00 | 88 | 1014.3 |
| 20260901011804 | 26 | 31 | 0.0 | 0.0 | 0.00 | 0.00 | 0.00 | 88 | 1014.3 |
| 20260901011304 | 26 | 31 | 0.0 | 0.0 | 0.00 | 0.00 | 0.00 | 87 | 1014.3 |
| 20260901010804 | 26 | 31 | 0.0 | 0.0 | 0.00 | 0.00 | 0.00 | 87 | 1014.5 |
| 20260901005307 | 26 | 31 | 0.0 | 0.0 | 0.00 | 0.00 | 0.00 | 87 | 1014.6 |
| 20260901004804 | 26 | 31 | 0.0 | 0.0 | 0.00 | 0.00 | 0.00 | 87 | 1014.6 |
| 20260901004304 | 26 | 31 | 0.0 | 0.0 | 0.00 | 0.00 | 0.00 | 87 | 1014.6 |
| 20260901003805 | 26 | 36 | 0.0 | 0.0 | 0.00 | 0.00 | 0.00 | 87 | 1014.7 |
| 20260901003304 | 26 | 44 | 1.6 | 3.2 | 0.00 | 0.00 | 0.00 | 87 | 1014.7 |
| 20260901002805 | 26 | 44 | 0.0 | 3.2 | 0.00 | 0.00 | 0.00 | 87 | 1014.6 |
| 20260901002305 | 26 | 44 | 0.0 | 1.6 | 0.00 | 0.00 | 0.00 | 87 | 1014.7 |
| 20260901001804 | 26 | 44 | 0.0 | 1.6 | 0.00 | 0.00 | 0.00 | 87 | 1014.7 |
| 20260901001304 | 26 | 44 | 0.0 | 1.6 | 0.00 | 0.00 | 0.00 | 87 | 1014.6 |
| 20260901000804 | 26 | 43 | 0.0 | 3.2 | 0.00 | 0.00 | 0.00 | 87 | 1014.6 |
| 20260901000304 | 26 | 347 | 0.0 | 1.6 | 0.00 | 0.00 | 0.00 | 87 | 1014.7 |
| 20260831235804 | 26 | 24 | 0.0 | 4.8 | 0.00 | 0.00 | 0.00 | 87 | 1014.7 |
| 20260831235306 | 26 | 34 | 0.0 | 0.0 | 0.00 | 0.00 | 0.00 | 87 | 1014.8 |
| 20260831234804 | 26 | 34 | 0.0 | 4.8 | 0.00 | 0.00 | 0.00 | 87 | 1014.8 |
| 20260831234305 | 26 | 27 | 0.0 | 3.2 | 0.00 | 0.00 | 0.00 | 87 | 1014.8 |
| 20260831233804 | 26 | 25 | 0.0 | 3.2 | 0.00 | 0.00 | 0.00 | 87 | 1014.8 |
| 20260831233305 | 26 | 0 | 0.0 | 4.8 | 0.00 | 0.00 | 0.00 | 87 | 1014.8 |
| 20260831232804 | 26 | 0 | 0.0 | 4.8 | 0.00 | 0.00 | 0.00 | 87 | 1014.8 |
| 20260831231304 | 26 | 19 | 0.0 | 4.8 | 0.00 | 0.00 | 0.00 | 86 | 1014.8 |
| 20260831230803 | 26 | 102 | 0.0 | 1.6 | 0.00 | 0.00 | 0.00 | 86 | 1014.8 |
| 20260831230304 | 26 | 102 | 0.0 | 1.6 | 0.00 | 0.00 | 0.00 | 86 | 1014.8 |
| 20260831225804 | 26 | 102 | 0.0 | 0.0 | 0.00 | 0.00 | 0.00 | 86 | 1014.8 |
| 20260831225306 | 26 | 102 | 0.0 | 1.6 | 0.00 | 0.00 | 0.00 | 86 | 1014.7 |
| 20260831224304 | 27 | 102 | 0.0 | 3.2 | 0.00 | 0.00 | 0.00 | 86 | 1014.8 |
| 20260831223804 | 27 | 102 | 0.0 | 1.6 | 0.00 | 0.00 | 0.00 | 85 | 1014.7 |
| 20260831223304 | 26 | 102 | 0.0 | 0.0 | 0.00 | 0.00 | 0.00 | 85 | 1014.7 |
| 20260831222804 | 26 | 102 | 0.0 | 0.0 | 0.00 | 0.00 | 0.00 | 85 | 1014.8 |
| 20260831221804 | 26 | 102 | 0.0 | 0.0 | 0.00 | 0.00 | 0.00 | 85 | 1014.7 |
| 20260831220819 | 26 | 102 | 0.0 | 3.2 | 0.00 | 0.00 | 0.00 | 85 | 1014.6 |
| 20260831220305 | 26 | 87 | 0.0 | 1.6 | 0.00 | 0.00 | 0.00 | 85 | 1014.5 |
| 20260831215804 | 26 | 86 | 0.0 | 0.0 | 0.00 | 0.00 | 0.00 | 85 | 1014.4 |
| 20260831215306 | 26 | 86 | 0.0 | 1.6 | 0.00 | 0.00 | 0.00 | 85 | 1014.4 |
| 20260831214304 | 27 | 86 | 0.0 | 1.6 | 0.00 | 0.00 | 0.00 | 85 | 1014.4 |
| 20260831213804 | 27 | 86 | 0.0 | 0.0 | 0.00 | 0.00 | 0.00 | 85 | 1014.4 |
| 20260831213304 | 27 | 86 | 0.0 | 0.0 | 0.00 | 0.00 | 0.00 | 85 | 1014.3 |
| 20260831212804 | 27 | 86 | 0.0 | 0.0 | 0.00 | 0.00 | 0.00 | 85 | 1014.2 |
| 20260831212306 | 27 | 86 | 0.0 | 1.6 | 0.00 | 0.00 | 0.00 | 85 | 1014.2 |
| 20260831211804 | 27 | 86 | 0.0 | 3.2 | 0.00 | 0.00 | 0.00 | 85 | 1014.2 |
| 20260831211304 | 27 | 86 | 0.0 | 3.2 | 0.00 | 0.00 | 0.00 | 85 | 1014.1 |
| 20260831210304 | 27 | 104 | 0.0 | 1.6 | 0.00 | 0.00 | 0.00 | 85 | 1014.1 |
| 20260831205804 | 27 | 104 | 0.0 | 3.2 | 0.00 | 0.00 | 0.00 | 85 | 1014.1 |
| 20260831205305 | 27 | 104 | 0.0 | 3.2 | 0.00 | 0.00 | 0.00 | 85 | 1014.1 |
| 20260831203803 | 27 | 107 | 0.0 | 3.2 | 0.00 | 0.00 | 0.00 | 84 | 1014.0 |
| 20260831203304 | 27 | 102 | 0.0 | 3.2 | 0.00 | 0.00 | 0.00 | 84 | 1013.9 |
| 20260831201804 | 27 | 132 | 0.0 | 3.2 | 0.00 | 0.00 | 0.00 | 83 | 1013.7 |
| 20260831201304 | 27 | 135 | 1.6 | 8.0 | 0.00 | 0.00 | 0.00 | 83 | 1013.7 |
| 20260831200803 | 27 | 78 | 0.0 | 3.2 | 0.00 | 0.00 | 0.00 | 83 | 1013.7 |
| 20260831200303 | 27 | 77 | 0.0 | 0.0 | 0.00 | 0.00 | 0.00 | 83 | 1013.7 |
| 20260831195804 | 27 | 77 | 0.0 | 3.2 | 0.00 | 0.00 | 0.00 | 83 | 1013.6 |
| 20260831195306 | 27 | 79 | 0.0 | 4.8 | 0.00 | 0.00 | 0.00 | 83 | 1013.5 |
| 20260831194803 | 27 | 85 | 0.0 | 3.2 | 0.00 | 0.00 | 0.00 | 82 | 1013.3 |
| 20260831194304 | 27 | 85 | 1.6 | 3.2 | 0.00 | 0.00 | 0.00 | 82 | 1013.2 |
| 20260831193804 | 27 | 9 | 0.0 | 1.6 | 0.00 | 0.00 | 0.00 | 82 | 1013.1 |
| 20260831193304 | 27 | 10 | 0.0 | 0.0 | 0.00 | 0.00 | 0.00 | 82 | 1012.9 |
| 20260831192804 | 27 | 9 | 1.6 | 4.8 | 0.00 | 0.00 | 0.00 | 82 | 1012.9 |
| 20260831192305 | 27 | 66 | 0.0 | 3.2 | 0.00 | 0.00 | 0.00 | 82 | 1012.8 |
| 20260831191303 | 27 | 63 | 0.0 | 1.6 | 0.00 | 0.00 | 0.00 | 82 | 1012.7 |
| 20260831190804 | 27 | 56 | 0.0 | 3.2 | 0.00 | 0.00 | 0.00 | 82 | 1012.6 |
| 20260831190304 | 27 | 77 | 1.6 | 11.3 | 0.00 | 0.00 | 0.00 | 81 | 1012.5 |
| 20260831185804 | 27 | 120 | 0.0 | 3.2 | 0.00 | 0.00 | 0.00 | 81 | 1012.5 |
| 20260831185306 | 27 | 121 | 0.0 | 1.6 | 0.00 | 0.00 | 0.00 | 81 | 1012.5 |
| 20260831184803 | 27 | 121 | 0.0 | 4.8 | 0.00 | 0.00 | 0.00 | 81 | 1012.5 |
| 20260831184304 | 27 | 332 | 0.0 | 4.8 | 0.00 | 0.00 | 0.00 | 81 | 1012.5 |
| 20260831183303 | 27 | 140 | 0.0 | 4.8 | 0.00 | 0.00 | 0.00 | 81 | 1012.3 |
| 20260831182804 | 27 | 131 | 0.0 | 1.6 | 0.00 | 0.00 | 0.00 | 80 | 1012.3 |
| 20260831182305 | 27 | 121 | 0.0 | 9.7 | 0.00 | 0.00 | 0.00 | 80 | 1012.3 |
| 20260831181804 | 27 | 136 | 0.0 | 3.2 | 0.00 | 0.00 | 0.00 | 80 | 1012.3 |
| 20260831181304 | 27 | 136 | 0.0 | 4.8 | 0.00 | 0.00 | 0.00 | 79 | 1012.3 |
| 20260831180804 | 27 | 145 | 1.6 | 4.8 | 0.00 | 0.00 | 0.00 | 79 | 1012.3 |
| 20260831180304 | 27 | 128 | 1.6 | 8.0 | 0.00 | 0.00 | 0.00 | 79 | 1012.2 |
| 20260831175803 | 27 | 112 | 1.6 | 9.7 | 0.00 | 0.00 | 0.00 | 78 | 1012.2 |
| 20260831174804 | 27 | 134 | 1.6 | 8.0 | 0.00 | 0.00 | 0.00 | 77 | 1012.2 |
| 20260831174304 | 27 | 133 | 1.6 | 8.0 | 0.00 | 0.00 | 0.00 | 76 | 1012.2 |
| 20260831172803 | 28 | 135 | 1.6 | 8.0 | 0.00 | 0.00 | 0.00 | 75 | 1012.0 |
| 20260831172306 | 28 | 117 | 0.0 | 8.0 | 0.00 | 0.00 | 0.00 | 74 | 1012.0 |
| 20260831171304 | 28 | 145 | 1.6 | 8.0 | 0.00 | 0.00 | 0.00 | 74 | 1011.9 |
| 20260831170305 | 28 | 130 | 1.6 | 8.0 | 0.00 | 0.00 | 0.00 | 72 | 1011.9 |
| 20260831165805 | 28 | 137 | 1.6 | 11.3 | 0.00 | 0.00 | 0.00 | 71 | 1011.9 |
| 20260831164805 | 29 | 147 | 3.2 | 8.0 | 0.00 | 0.00 | 0.00 | 69 | 1012.0 |
| 20260831164305 | 30 | 128 | 3.2 | 9.7 | 0.00 | 0.00 | 0.00 | 69 | 1012.0 |
| 20260831163805 | 30 | 138 | 3.2 | 9.7 | 0.00 | 0.00 | 0.00 | 68 | 1012.0 |
| 20260831162306 | 30 | 113 | 3.2 | 9.7 | 0.00 | 0.00 | 0.00 | 64 | 1012.2 |
| 20260831161305 | 31 | 132 | 1.6 | 8.0 | 0.00 | 0.00 | 0.00 | 56 | 1012.2 |
| 20260831160805 | 31 | 129 | 1.6 | 8.0 | 0.00 | 0.00 | 0.00 | 56 | 1012.2 |
| 20260831160305 | 31 | 151 | 3.2 | 8.0 | 0.00 | 0.00 | 0.00 | 54 | 1012.3 |
| 20260831155805 | 31 | 115 | 1.6 | 4.8 | 0.00 | 0.00 | 0.00 | 54 | 1012.3 |
| 20260831154805 | 31 | 144 | 3.2 | 8.0 | 0.00 | 0.00 | 0.00 | 55 | 1012.4 |
| 20260831154305 | 31 | 118 | 1.6 | 8.0 | 0.00 | 0.00 | 0.00 | 55 | 1012.5 |
| 20260831153805 | 31 | 142 | 3.2 | 12.9 | 0.00 | 0.00 | 0.00 | 56 | 1012.4 |
| 20260831152804 | 31 | 152 | 3.2 | 9.7 | 0.00 | 0.00 | 0.00 | 58 | 1012.5 |
| 20260831152306 | 31 | 145 | 3.2 | 8.0 | 0.00 | 0.00 | 0.00 | 59 | 1012.5 |
| 20260831151804 | 31 | 127 | 1.6 | 8.0 | 0.00 | 0.00 | 0.00 | 61 | 1012.5 |
| 20260831151305 | 31 | 144 | 1.6 | 4.8 | 0.00 | 0.00 | 0.00 | 63 | 1012.5 |
| 20260831150805 | 31 | 151 | 1.6 | 9.7 | 0.00 | 0.00 | 0.00 | 66 | 1012.6 |
| 20260831150305 | 30 | 153 | 0.0 | 8.0 | 0.00 | 0.00 | 0.00 | 67 | 1012.6 |
| 20260831145805 | 31 | 144 | 0.0 | 4.8 | 0.00 | 0.00 | 0.00 | 67 | 1012.5 |
| 20260831145306 | 31 | 127 | 1.6 | 8.0 | 0.00 | 0.00 | 0.00 | 67 | 1012.5 |
| 20260831144805 | 31 | 150 | 3.2 | 9.7 | 0.00 | 0.00 | 0.00 | 67 | 1012.6 |
| 20260831144304 | 31 | 165 | 3.2 | 8.0 | 0.00 | 0.00 | 0.00 | 67 | 1012.6 |
| 20260831143805 | 31 | 141 | 4.8 | 9.7 | 0.00 | 0.00 | 0.00 | 67 | 1012.6 |
| 20260831143305 | 31 | 140 | 3.2 | 9.7 | 0.00 | 0.00 | 0.00 | 67 | 1012.7 |
| 20260831142805 | 31 | 132 | 3.2 | 8.0 | 0.00 | 0.00 | 0.00 | 67 | 1012.7 |
| 20260831142306 | 31 | 133 | 3.2 | 8.0 | 0.00 | 0.00 | 0.00 | 67 | 1012.6 |
| 20260831141805 | 31 | 160 | 3.2 | 12.9 | 0.00 | 0.00 | 0.00 | 67 | 1012.6 |
| 20260831141305 | 30 | 186 | 3.2 | 9.7 | 0.00 | 0.00 | 0.00 | 69 | 1012.6 |
| 20260831140804 | 30 | 142 | 1.6 | 8.0 | 0.00 | 0.00 | 0.00 | 68 | 1012.7 |
| 20260831135805 | 31 | 147 | 0.0 | 11.3 | 0.00 | 0.00 | 0.00 | 67 | 1012.8 |
| 20260831135306 | 30 | 158 | 1.6 | 8.0 | 0.00 | 0.00 | 0.00 | 70 | 1012.7 |
| 20260831134805 | 30 | 119 | 1.6 | 8.0 | 0.00 | 0.00 | 0.00 | 69 | 1012.8 |
| 20260831134305 | 30 | 13 | 3.2 | 8.0 | 0.00 | 0.00 | 0.00 | 67 | 1012.8 |
| 20260831133805 | 31 | 74 | 1.6 | 4.8 | 0.00 | 0.00 | 0.00 | 65 | 1012.9 |
| 20260831133305 | 31 | 46 | 1.6 | 4.8 | 0.00 | 0.00 | 0.00 | 65 | 1012.9 |
| 20260831132805 | 31 | 342 | 1.6 | 4.8 | 0.00 | 0.00 | 0.00 | 66 | 1012.9 |
| 20260831132307 | 30 | 7 | 3.2 | 4.8 | 0.00 | 0.00 | 0.00 | 66 | 1012.8 |